TimeMDT,TemperatureF,Dew PointF,Humidity,Sea Level PressureIn,VisibilityMPH,Wind Direction,Wind SpeedMPH,Gust SpeedMPH,PrecipitationIn,Events,Conditions,WindDirDegrees,DateUTC
12:15 AM,71.6,15.8,12,29.88,10.0,SSW,8.1,-,N/A,,Clear,210,2013-05-24 06:15:00
12:35 AM,69.8,15.8,13,29.89,10.0,East,5.8,-,N/A,,Clear,90,2013-05-24 06:35:00
12:55 AM,68.0,15.8,13,29.89,10.0,SSE,8.1,-,N/A,,Clear,160,2013-05-24 06:55:00
1:15 AM,66.2,15.8,14,29.89,10.0,SE,8.1,-,N/A,,Clear,130,2013-05-24 07:15:00
1:35 AM,64.4,15.8,15,29.89,10.0,SE,6.9,-,N/A,,Clear,130,2013-05-24 07:35:00
1:55 AM,66.2,17.6,15,29.89,10.0,SE,11.5,-,N/A,,Clear,140,2013-05-24 07:55:00
2:15 AM,64.4,17.6,16,29.89,10.0,SE,9.2,-,N/A,,Clear,130,2013-05-24 08:15:00
2:35 AM,64.4,15.8,15,29.89,10.0,SE,9.2,-,N/A,,Clear,130,2013-05-24 08:35:00
2:55 AM,64.4,15.8,15,29.89,10.0,SE,10.4,-,N/A,,Clear,130,2013-05-24 08:55:00
3:35 AM,62.6,15.8,16,29.91,10.0,East,8.1,-,N/A,,Clear,100,2013-05-24 09:35:00
3:55 AM,62.6,14.0,15,29.90,10.0,ESE,9.2,-,N/A,,Clear,120,2013-05-24 09:55:00
4:15 AM,62.6,14.0,15,29.91,10.0,ESE,6.9,-,N/A,,Clear,120,2013-05-24 10:15:00
4:35 AM,62.6,12.2,14,29.91,10.0,ESE,11.5,-,N/A,,Clear,110,2013-05-24 10:35:00
4:55 AM,62.6,12.2,14,29.91,10.0,East,8.1,-,N/A,,Clear,100,2013-05-24 10:55:00
5:15 AM,64.4,14.0,14,29.93,10.0,SSE,3.5,-,N/A,,Clear,150,2013-05-24 11:15:00
5:35 AM,62.6,12.2,14,29.94,10.0,NNE,3.5,-,N/A,,Clear,20,2013-05-24 11:35:00
5:55 AM,60.8,12.2,15,29.94,10.0,ENE,3.5,-,N/A,,Clear,60,2013-05-24 11:55:00
6:15 AM,60.8,10.4,14,29.95,10.0,ESE,3.5,-,N/A,,Clear,120,2013-05-24 12:15:00
6:35 AM,60.8,12.2,15,29.97,10.0,East,5.8,-,N/A,,Clear,100,2013-05-24 12:35:00
6:55 AM,60.8,10.4,14,29.98,10.0,ESE,6.9,-,N/A,,Clear,110,2013-05-24 12:55:00
7:15 AM,60.8,10.4,14,29.98,10.0,Calm,Calm,-,N/A,,Clear,0,2013-05-24 13:15:00
7:35 AM,62.6,12.2,14,29.99,10.0,Calm,Calm,-,N/A,,Clear,0,2013-05-24 13:35:00
7:55 AM,62.6,12.2,14,30.00,10.0,Calm,Calm,-,N/A,,Clear,0,2013-05-24 13:55:00
8:15 AM,62.6,14.0,15,30.01,10.0,SE,4.6,-,N/A,,Clear,130,2013-05-24 14:15:00
8:35 AM,62.6,17.6,18,30.01,10.0,Calm,Calm,-,N/A,,Clear,0,2013-05-24 14:35:00
8:55 AM,64.4,17.6,16,30.01,10.0,Calm,Calm,-,N/A,,Clear,0,2013-05-24 14:55:00
9:15 AM,66.2,15.8,14,30.01,10.0,Calm,Calm,-,N/A,,Clear,0,2013-05-24 15:15:00
9:35 AM,68.0,15.8,13,30.01,10.0,Calm,Calm,-,N/A,,Clear,0,2013-05-24 15:35:00
9:55 AM,71.6,15.8,12,30.01,10.0,Calm,Calm,-,N/A,,Clear,0,2013-05-24 15:55:00
10:15 AM,71.6,15.8,12,30.01,10.0,Calm,Calm,-,N/A,,Clear,0,2013-05-24 16:15:00
10:35 AM,71.6,15.8,12,30.00,10.0,Calm,Calm,-,N/A,,Clear,0,2013-05-24 16:35:00
10:55 AM,73.4,15.8,11,29.99,10.0,Calm,Calm,-,N/A,,Clear,0,2013-05-24 16:55:00
11:15 AM,73.4,15.8,11,29.99,10.0,NNW,3.5,-,N/A,,Clear,330,2013-05-24 17:15:00
11:35 AM,75.2,17.6,11,29.98,10.0,North,5.8,-,N/A,,Clear,350,2013-05-24 17:35:00
11:55 AM,77.0,17.6,11,29.98,10.0,North,4.6,-,N/A,,Clear,10,2013-05-24 17:55:00
12:15 PM,80.6,19.4,10,29.98,10.0,NNW,6.9,-,N/A,,Clear,340,2013-05-24 18:15:00
12:35 PM,80.6,21.2,11,29.97,10.0,Calm,Calm,-,N/A,,Clear,0,2013-05-24 18:35:00
12:55 PM,82.4,21.2,10,29.96,10.0,ENE,3.5,-,N/A,,Clear,60,2013-05-24 18:55:00
1:15 PM,80.6,21.2,11,29.96,10.0,West,5.8,-,N/A,,Clear,260,2013-05-24 19:15:00
1:35 PM,82.4,21.2,10,29.95,10.0,NW,4.6,-,N/A,,Clear,310,2013-05-24 19:35:00
1:55 PM,82.4,21.2,10,29.94,10.0,NE,3.5,-,N/A,,Clear,50,2013-05-24 19:55:00
2:15 PM,84.2,23.0,11,29.94,10.0,West,8.1,-,N/A,,Clear,260,2013-05-24 20:15:00
2:35 PM,82.4,23.0,11,29.93,10.0,Calm,Calm,-,N/A,,Clear,0,2013-05-24 20:35:00
2:55 PM,84.2,23.0,11,29.92,10.0,NNE,5.8,-,N/A,,Clear,30,2013-05-24 20:55:00
3:15 PM,86.0,24.8,11,29.91,10.0,WNW,8.1,-,N/A,,Clear,290,2013-05-24 21:15:00
3:35 PM,87.8,24.8,10,29.90,10.0,North,4.6,-,N/A,,Clear,10,2013-05-24 21:35:00
3:55 PM,86.0,24.8,11,29.89,10.0,WNW,6.9,-,N/A,,Clear,290,2013-05-24 21:55:00
4:15 PM,87.8,24.8,10,29.88,10.0,WNW,4.6,-,N/A,,Clear,290,2013-05-24 22:15:00
4:35 PM,87.8,24.8,10,29.87,10.0,NNW,6.9,-,N/A,,Clear,340,2013-05-24 22:35:00
4:55 PM,89.6,26.6,10,29.87,10.0,West,8.1,-,N/A,,Clear,280,2013-05-24 22:55:00
5:15 PM,89.6,26.6,10,29.86,10.0,WSW,12.7,23.0,N/A,,Clear,240,2013-05-24 23:15:00
5:35 PM,87.8,26.6,11,29.85,10.0,West,16.1,26.5,N/A,,Clear,260,2013-05-24 23:35:00
5:55 PM,87.8,26.6,11,29.85,10.0,WSW,20.7,27.6,N/A,,Clear,250,2013-05-24 23:55:00
6:15 PM,87.8,24.8,10,29.85,10.0,WSW,18.4,21.9,N/A,,Clear,250,2013-05-25 00:15:00
6:35 PM,87.8,24.8,10,29.85,10.0,West,15.0,26.5,N/A,,Clear,270,2013-05-25 00:35:00
6:55 PM,86.0,24.8,11,29.84,10.0,West,15.0,21.9,N/A,,Clear,260,2013-05-25 00:55:00
7:15 PM,86.0,24.8,11,29.84,10.0,West,12.7,-,N/A,,Clear,270,2013-05-25 01:15:00
7:35 PM,84.2,23.0,11,29.85,10.0,West,15.0,23.0,N/A,,Clear,270,2013-05-25 01:35:00
7:55 PM,84.2,23.0,11,29.85,10.0,West,13.8,-,N/A,,Clear,270,2013-05-25 01:55:00
8:15 PM,82.4,23.0,11,29.85,10.0,West,11.5,18.4,N/A,,Clear,260,2013-05-25 02:15:00
8:35 PM,82.4,23.0,11,29.86,10.0,West,10.4,-,N/A,,Clear,270,2013-05-25 02:35:00
8:55 PM,80.6,21.2,11,29.86,10.0,West,11.5,16.1,N/A,,Clear,270,2013-05-25 02:55:00
9:15 PM,80.6,21.2,11,29.87,10.0,West,9.2,-,N/A,,Clear,280,2013-05-25 03:15:00
9:35 PM,80.6,21.2,11,29.87,10.0,West,9.2,-,N/A,,Clear,260,2013-05-25 03:35:00
9:55 PM,80.6,21.2,11,29.88,10.0,WSW,10.4,-,N/A,,Clear,240,2013-05-25 03:55:00
10:15 PM,78.8,21.2,12,29.89,10.0,WSW,8.1,-,N/A,,Clear,240,2013-05-25 04:15:00
10:35 PM,75.2,19.4,12,29.89,10.0,SE,4.6,-,N/A,,Clear,140,2013-05-25 04:35:00
10:55 PM,75.2,19.4,12,29.90,10.0,East,4.6,-,N/A,,Clear,90,2013-05-25 04:55:00
11:15 PM,73.4,19.4,13,29.91,10.0,SSE,5.8,-,N/A,,Clear,150,2013-05-25 05:15:00
11:35 PM,73.4,19.4,13,29.91,10.0,South,4.6,-,N/A,,Clear,170,2013-05-25 05:35:00
11:55 PM,73.4,21.2,14,29.91,10.0,SSE,5.8,-,N/A,,Clear,160,2013-05-25 05:55:00